Location: Melbourne
(37.8170°S, 144.9670°E)
Time: 22:05:18
(UTC+11:00)

CZ-3 R/B - Visible Passes

Search period start: 18 October 2017 00:00
Search period end: 28 October 2017 00:00
Orbit: 262 x 10455 km, 28.4° (Epoch: 17 October)

Date Brightness Start Highest point End Pass type
(mag) Time Alt. Az. Time Alt. Az. Time Alt. Az.
18 Oct 6.2 19:53:46 10° W 20:18:48 45° NNW 21:31:41 10° NNE visible
19 Oct 7.0 00:11:15 10° WNW 00:33:52 12° NW 01:00:54 10° NNW visible
19 Oct 6.5 20:33:17 10° W 21:01:34 38° NNW 22:12:00 10° NNE visible
20 Oct 6.7 21:13:47 10° W 21:44:42 31° NW 22:50:16 10° NNE visible
21 Oct 6.9 21:56:02 10° WNW 22:28:12 24° NW 23:26:30 10° N visible
22 Oct 5.9 18:42:44 10° W 19:00:29 45° NNW 20:04:03 10° NE visible
22 Oct 6.9 22:42:07 10° WNW 23:12:12 18° NW 23:58:07 10° N visible
23 Oct 6.1 19:21:20 10° W 19:41:57 40° NNW 20:46:28 10° NNE visible
23 Oct 7.0 23:42:59 10° NW 23:57:11 11° NW 00:13:39 10° NNW visible
24 Oct 6.4 20:00:34 10° W 20:24:02 34° NNW 21:27:09 10° NNE visible
25 Oct 6.6 20:40:50 10° WNW 21:06:42 27° NNW 22:05:50 10° NNE visible
26 Oct 6.8 21:23:04 10° WNW 21:50:03 21° NNW 22:41:48 10° N visible
27 Oct 6.9 22:09:50 10° WNW 22:34:21 15° NW 23:12:24 10° N visible
